Weather History for Pasco, WA

Change the Weather History Date:

Friday, November 23, 2012

  Actual Average Record
Temperature  
Mean Temperature 38 °F 39 °F  
Max Temperature 44 °F 46 °F 70 °F (2011)
Min Temperature 32 °F 31 °F -5 °F (2010)
Degree Days  
Heating Degree Days 27 26  
Month to date heating degree days 452 516  
Since 1 July heating degree days 896 1034  
Cooling Degree Days 0 0  
Month to date cooling degree days 0 0  
Year to date cooling degree days 788 710  
Moisture  
Dew Point 36 °F    
Average Humidity 89    
Maximum Humidity 96    
Minimum Humidity 82    
Precipitation  
Precipitation 0.00 in - 0.44 in (1949)
Month to date precipitation 0.89  
Year to date precipitation 8.35  
Snow  
Snow 0.00 in - - ()
Snow Depth 0.00 in    
Sea Level Pressure  
Sea Level Pressure 30.23 in    
Wind  
Wind Speed 3 mph (East)    
Max Wind Speed 8 mph    
Max Gust Speed 9 mph    
Visibility 10 miles    
Events Rain    
T = Trace of Precipitation, MM = Missing Value Source: NWS Daily Summary

Daily Weather History Graph

Daily Weather History Graph

Search for Another Location

Airport:

Trip Planner

Search our weather history database for the weather conditions in past years. The results will help you decide how hot, cold, wet, or windy it might be!

Date:

Astronomy

Nov. 23, 2012 Rise Set
Actual Time 7:09 AM PST 4:16 PM PST
Civil Twilight 6:36 AM PST 4:49 PM PST
Nautical Twilight 5:58 AM PST 5:26 PM PST
Astronomical Twilight 5:23 AM PST 6:02 PM PST
Moon 1:45 PM PST (11/23) 2:19 AM PST (11/23)
Length of Visible Light 10h 13m
Length of Day
9h 06m
Waxing Gibbous, 80% of the Moon is Illuminated
Nov 23
Waxing Gibbous
Nov 28
Full
Dec 6
Last Quarter
Dec 13
New
Dec 19
First Quarter

Hourly Weather History & Observations

Time (PST) Temp. Windchill Dew Point Humidity Pressure Visibility Wind Dir Wind Speed Gust Speed Precip Events Conditions
12:53 AM 36.0 °F 33.3 °F 34.0 °F 93% 30.37 in 10.0 mi NW 3.5 mph - N/A   Clear
1:53 AM 35.1 °F 32.2 °F 33.1 °F 92% 30.36 in 10.0 mi NNW 3.5 mph - N/A   Clear
2:53 AM 35.1 °F 31.0 °F 33.1 °F 92% 30.35 in 10.0 mi NNW 4.6 mph - N/A   Clear
3:53 AM 34.0 °F - 32.0 °F 92% 30.34 in 10.0 mi Calm Calm - N/A   Clear
4:53 AM 34.0 °F - 32.0 °F 92% 30.32 in 10.0 mi Calm Calm - N/A   Clear
5:53 AM 33.1 °F 30.0 °F 30.9 °F 92% 30.32 in 10.0 mi North 3.5 mph - N/A   Clear
6:53 AM 33.1 °F - 32.0 °F 96% 30.30 in 10.0 mi Calm Calm - N/A   Clear
7:53 AM 33.1 °F - 32.0 °F 96% 30.31 in 10.0 mi Calm Calm - N/A   Clear
8:53 AM 35.1 °F - 33.1 °F 92% 30.30 in 10.0 mi Calm Calm - N/A   Clear
9:53 AM 37.0 °F - 35.1 °F 93% 30.30 in 10.0 mi Calm Calm - N/A   Clear
10:53 AM 39.0 °F 34.8 °F 36.0 °F 89% 30.27 in 10.0 mi ESE 5.8 mph - N/A   Clear
11:53 AM 41.0 °F 39.0 °F 37.0 °F 86% 30.25 in 10.0 mi East 3.5 mph - N/A   Mostly Cloudy
12:53 PM 43.0 °F 40.3 °F 37.9 °F 82% 30.22 in 10.0 mi East 4.6 mph - N/A   Overcast
1:53 PM 43.0 °F 38.8 °F 37.9 °F 82% 30.19 in 10.0 mi East 6.9 mph - N/A   Clear
2:53 PM 43.0 °F 39.5 °F 37.0 °F 80% 30.18 in 10.0 mi ESE 5.8 mph - N/A   Mostly Cloudy
3:53 PM 43.0 °F 41.3 °F 37.0 °F 80% 30.17 in 10.0 mi ESE 3.5 mph - N/A   Overcast
4:53 PM 43.0 °F - 37.0 °F 80% 30.15 in 10.0 mi Calm Calm - 0.00 in Rain Light Rain
5:53 PM 43.0 °F - 37.9 °F 82% 30.14 in 10.0 mi Calm Calm - 0.00 in Rain Light Rain
6:53 PM 42.1 °F - 39.9 °F 92% 30.14 in 10.0 mi Calm Calm - 0.01 in Rain Light Rain
7:53 PM 42.1 °F - 39.9 °F 92% 30.14 in 10.0 mi Calm Calm - 0.02 in Rain Light Rain
8:53 PM 43.0 °F 39.5 °F 41.0 °F 93% 30.13 in 10.0 mi SE 5.8 mph - 0.04 in Rain Light Rain
9:53 PM 44.1 °F 42.5 °F 41.0 °F 89% 30.12 in 10.0 mi ESE 3.5 mph - 0.01 in Rain Light Rain
10:53 PM 45.0 °F 40.6 °F 42.1 °F 90% 30.12 in 10.0 mi SE 8.1 mph - 0.03 in Rain Light Rain
11:53 PM 46.9 °F - 43.0 °F 86% 30.13 in 10.0 mi South 8.1 mph - 0.03 in Rain Light Rain